x

Central Caribbean - 210 Nm Sse Of Kingston, Jamaica (42058) Wave Buoy

3:50 - Sun 5th Jul 2015 All times are EST. -5 hours from GMT.

  • Sig Wave height 10.2ft
  • Swell Direction
  • Peak Period 9s
  • Average Period 6s
  • Wind
    27mph, 34mph gusts
  • Sea Temp 83°f
  • Ar Temp 83°f
  • Sea Pressure 1012.5mb
  • Central Caribbean - 210 Nm Sse Of Kingston, Jamaica
  • Central Caribbean - 210 Nm Sse Of Kingston, Jamaica

More Historic Weather Station data

Upgrade to MSW Pro to gain access to the past 30 days of data for over 8000 Wavebouys and Weather Stations around the globe.

Join Pro

Comparision Forecast

View Surf forecast
   
Dom 07/05 3:50 10ft 9s 6s 27 34 mph 1012.5mb 83f 83f
2:50 10.5ft 9s 7s 27 31 mph 1013.3mb 83f 83f
1:50 11ft 9s 6s 29 34 mph 1013.5mb 83f 83f
12:50 11.5ft 9s 7s 29 34 mph 1013.8mb 83f 83f
11:50 11.5ft 9s 7s 27 34 mph 1014.4mb 83f 83f
10:50 11ft 9s 7s 29 36 mph 1014.6mb 83f 83f
9:50 12ft 9s 7s 29 38 mph 1014.3mb 83f 83f
8:50 12ft 9s 7s 29 34 mph 1014.6mb 83f 83f
7:50 12ft 9s 7s 29 36 mph 1014.1mb 83f 83f
6:50 12ft 9s 7s 29 34 mph 1013.4mb 83f 83f
5:50 12ft 9s 7s 31 36 mph 1012.9mb 83f 82f
4:50 13ft 9s 7s 29 36 mph 1012.3mb 83f 83f
3:50 12.5ft 9s 7s 31 38 mph 1012.1mb 83f 83f
2:50 11ft 9s 6s 31 38 mph 1011.9mb 83f 83f
1:50 11.5ft 9s 6s 31 38 mph 1012mb 83f 83f
12:50 12ft 9s 7s 31 40 mph 1012.1mb 83f 83f
Sáb 07/04 11:50 11ft 8s 7s 31 38 mph 1012.5mb 83f 83f
10:50 12ft 9s 7s 29 36 mph 1012.6mb 83f 83f
9:50 11ft 8s 6s 31 36 mph 1012.7mb 83f 83f
8:50 11ft 8s 6s 31 38 mph 1012.3mb 83f 83f
7:50 11ft 9s 7s 29 36 mph 1011.7mb 83f 83f
6:50 12.5ft 8s 7s 29 40 mph 1011.2mb 83f 83f
5:50 12ft 8s 7s 29 36 mph 1010.9mb 83f 83f
4:50 12.5ft 8s 7s 31 40 mph 1010.2mb 83f 83f
3:50 12ft 9s 7s 31 38 mph 1009.7mb 83f 83f
2:50 12ft 8s 7s 29 36 mph 1010.2mb 83f 83f
1:50 13ft 9s 7s 29 38 mph 1011mb 83f 83f
12:50 11ft 9s 7s 29 34 mph 1011.7mb 83f 83f
11:50 12.5ft 9s 7s 31 36 mph 1012.1mb 83f 83f
10:50 12ft 9s 7s 29 36 mph 1012.5mb 83f 83f
9:50 11.5ft 9s 7s 31 38 mph 1012.6mb 83f 83f
8:50 12ft 9s 7s 29 36 mph 1012.6mb 83f 83f
7:50 12.5ft 9s 7s 31 38 mph 1012.3mb 83f 83f
6:50 11ft 9s 7s 34 40 mph 1011.8mb 83f 83f
5:50 11ft 9s 6s 29 38 mph 1011.8mb 83f 83f
4:50 12ft 9s 7s 29 38 mph 1011.9mb 83f 83f
3:50 12.5ft 8s 7s 27 31 mph 1011.7mb 83f 83f
2:50 12ft 8s 7s 27 34 mph 1011.2mb 83f 83f
1:50 11ft 9s 7s 31 36 mph 1010.8mb 83f 83f
12:50 11ft 9s 7s 29 36 mph 1010.8mb 83f 82f
Sex 07/03 11:50 11ft 8s 6s 31 38 mph 1011.3mb 83f 83f
10:50 11.5ft 8s 6s 31 38 mph 1011.9mb 83f 83f
9:50 11ft 9s 6s 31 38 mph 1011.7mb 82f 83f
8:50 12ft 9s 7s 34 38 mph 1011.1mb 82f 82f
7:50 12ft 9s 7s 31 40 mph 1010.6mb 82f 83f
6:50 11.5ft 8s 6s 31 38 mph 1010.1mb 82f 82f
5:50 12.5ft 8s 7s 29 38 mph 1009.8mb 82f 83f
4:50 12ft 9s 7s 31 36 mph 1009.8mb 82f 83f
3:50 12ft 8s 7s 31 38 mph 1009.8mb 82f 83f
2:50 11.5ft 8s 7s 29 34 mph 1010.1mb 82f 83f
1:50 13ft 9s 7s 29 36 mph 1010.8mb 82f 83f
12:50 14ft 8s 7s 29 36 mph 1011.6mb 82f 83f
11:50 12.5ft 9s 7s 29 36 mph 1012.3mb 82f 83f
10:50 13ft 9s 7s 29 38 mph 1012.6mb 82f 83f
9:50 12.5ft 9s 7s 31 38 mph 1012.7mb 82f 83f
8:50 12ft 9s 7s 29 36 mph 1012.7mb 82f 83f
7:50 12.5ft 9s 7s 31 38 mph 1012.6mb 82f 83f
6:50 13ft 8s 7s 29 36 mph 1012.4mb 82f 82f
5:50 12.5ft 9s 7s 29 36 mph 1011.9mb 82f 82f
4:50 13ft 9s 7s 27 36 mph 1011.6mb 82f 82f
3:50 11.5ft 8s 7s 29 36 mph 1011.3mb 82f 82f
2:50 11ft 9s 6s 29 38 mph 1011.5mb 82f 83f
1:50 11.5ft 8s 7s 29 36 mph 1011.5mb 82f 83f
12:50 11ft 8s 6s 29 34 mph 1012.2mb 82f 82f
Qui 07/02 11:50 11ft 8s 6s 29 36 mph 1012.8mb 82f 83f
10:50 10.5ft 9s 6s 27 31 mph 1013mb 82f 83f
9:50 10.5ft 8s 6s 29 36 mph 1012.7mb 82f 83f
8:50 10.5ft 8s 6s 29 38 mph 1012.4mb 82f 83f
7:50 11ft 9s 7s 29 36 mph 1012.1mb 82f 83f
6:50 11ft 9s 7s 29 36 mph 1011.9mb 82f 83f
5:50 11ft 8s 7s 29 36 mph 1011.5mb 82f 83f
4:50 11ft 9s 7s 27 31 mph 1011.1mb 82f 83f
3:50 11ft 9s 7s 27 34 mph 1011mb 82f 83f
2:50 11ft 8s 7s 29 36 mph 1011.4mb 82f 83f
1:50 12ft 9s 7s 29 36 mph 1012.1mb 82f 83f
12:50 13ft 8s 7s 29 36 mph 1012.4mb 82f 83f
11:50 12ft 9s 7s 29 36 mph 1013.2mb 82f 83f
10:50 12ft 9s 7s 29 38 mph 1013.4mb 82f 83f
9:50 12ft 8s 7s 29 34 mph 1013.5mb 82f 83f
8:50 12.5ft 9s 7s 29 38 mph 1013.4mb 82f 83f
7:50 11ft 8s 6s 29 36 mph 1013.5mb 82f 83f
6:50 11.5ft 8s 7s 29 36 mph 1013.1mb 82f 83f
5:50 11ft 9s 7s 29 34 mph 1012.5mb 83f 83f
4:50 12ft 8s 7s 31 36 mph 1012.4mb 83f 83f
3:50 11ft 9s 6s 31 38 mph 1011.5mb 83f 83f
2:50 12ft 8s 7s 31 40 mph 1011.5mb 83f 83f
1:50 12ft 8s 7s 29 36 mph 1011.5mb 83f 83f
12:50 12ft 9s 7s 29 36 mph 1012.6mb 83f 83f
Qua 07/01 11:50 10.5ft 9s 6s 29 34 mph 1013.1mb 83f 83f
10:50 10ft 8s 6s 29 36 mph 1013.4mb 83f 83f